TimeEDT,TemperatureF,Dew PointF,Humidity,Sea Level PressureIn,VisibilityMPH,Wind Direction,Wind SpeedMPH,Gust SpeedMPH,PrecipitationIn,Events,Conditions,WindDirDegrees,DateUTC
12:55 AM,54.0,48.0,80,30.15,10.0,SE,9.2,-,N/A,,Clear,140,2013-10-09 04:55:00
1:55 AM,53.1,48.0,83,30.16,10.0,ESE,6.9,-,N/A,,Clear,120,2013-10-09 05:55:00
2:55 AM,52.0,46.9,83,30.16,10.0,East,4.6,-,N/A,,Clear,90,2013-10-09 06:55:00
3:55 AM,51.1,46.9,86,30.16,10.0,East,4.6,-,N/A,,Clear,80,2013-10-09 07:55:00
4:55 AM,50.0,46.9,89,30.18,10.0,ENE,5.8,-,N/A,,Clear,60,2013-10-09 08:55:00
5:55 AM,50.0,46.9,89,30.20,10.0,ENE,3.5,-,N/A,,Clear,70,2013-10-09 09:55:00
6:55 AM,48.9,46.0,90,30.20,10.0,East,4.6,-,N/A,,Clear,100,2013-10-09 10:55:00
7:55 AM,48.9,46.0,90,30.21,9.0,East,3.5,-,N/A,,Clear,90,2013-10-09 11:55:00
8:55 AM,52.0,48.0,86,30.21,10.0,Variable,3.5,-,N/A,,Clear,0,2013-10-09 12:55:00
9:55 AM,55.9,50.0,80,30.21,10.0,SE,5.8,-,N/A,,Clear,130,2013-10-09 13:55:00
10:55 AM,61.0,51.1,70,30.20,10.0,South,5.8,-,N/A,,Clear,170,2013-10-09 14:55:00
11:55 AM,64.9,52.0,63,30.20,10.0,South,9.2,-,N/A,,Clear,180,2013-10-09 15:55:00
12:55 PM,68.0,52.0,56,30.19,10.0,SSW,11.5,-,N/A,,Clear,200,2013-10-09 16:55:00
1:55 PM,70.0,52.0,53,30.18,10.0,SSW,8.1,-,N/A,,Clear,200,2013-10-09 17:55:00
2:55 PM,71.1,52.0,51,30.17,10.0,SSW,15.0,-,N/A,,Clear,210,2013-10-09 18:55:00
3:55 PM,71.1,51.1,49,30.17,10.0,SSW,12.7,-,N/A,,Clear,210,2013-10-09 19:55:00
4:55 PM,69.1,48.9,49,30.17,10.0,SSW,15.0,-,N/A,,Clear,200,2013-10-09 20:55:00
5:55 PM,66.9,51.1,57,30.18,10.0,SSW,9.2,-,N/A,,Clear,200,2013-10-09 21:55:00
6:55 PM,64.0,48.9,58,30.17,10.0,SSW,8.1,-,N/A,,Clear,200,2013-10-09 22:55:00
7:55 PM,60.1,48.9,67,30.17,10.0,SSE,3.5,-,N/A,,Clear,160,2013-10-09 23:55:00
8:55 PM,57.9,48.0,70,30.19,10.0,Variable,3.5,-,N/A,,Clear,0,2013-10-10 00:55:00
9:55 PM,55.9,48.0,75,30.19,10.0,SE,3.5,-,N/A,,Clear,140,2013-10-10 01:55:00
10:55 PM,55.0,48.9,80,30.19,10.0,ESE,3.5,-,N/A,,Clear,110,2013-10-10 02:55:00
11:55 PM,54.0,50.0,86,30.18,10.0,ESE,3.5,-,N/A,,Clear,120,2013-10-10 03:55:00